Regional Weather Roundup
Issued by NWS

Home | Current Version | Previous Version | Text Only | Print | Product List | Glossary On
Versions: 1 2 3 4 5 6 7 8 9 10 11 12 13 14 15 16 17 18 19 20 21 22 23 24 25 26 27 28 29 30 31 32 33 34 35 36 37 38 39 40 41 42 43 44 45 46 47 48 49 50
000
ASUS43 KLSX 241410
RWRMO

WEATHER SUMMARY FOR MISSOURI
NATIONAL WEATHER SERVICE SPRINGFIELD MO
900 AM CDT WED AUG 24 2016

NOTE: "FAIR" INDICATES FEW OR NO CLOUDS BELOW 12,000 FEET WITH NO
       SIGNIFICANT WEATHER AND/OR OBSTRUCTIONS TO VISIBILITY.
       CURRENT SKY AND/OR WEATHER CONDITIONS ARE NOT AVAILABLE FOR
       CHILLICOTHE AND FARMINGTON.

MOZ001>031-035>038-043-044-053-054-241500-
...NORTHERN AND WESTERN MISSOURI...

CITY           SKY/WX    TMP DP  RH WIND       PRES   REMARKS
KANSAS CTY INT PTSUNNY   74  68  81 S14       29.97R
KANSAS C DTWN  MOSUNNY   75  69  81 S12       29.96R
LEE`S SUMMIT   CLOUDY    72  70  93 S10       29.99S
ST JOSEPH      MOSUNNY   73  68  84 S8        29.97R
CHILLICOTHE      N/A     76  69  79 VRB7      29.96R
KIRKSVILLE     SUNNY     74  68  81 W6        29.98R

$$
MOZ066>068-077>081-088>096-101>105-241500-
...SOUTHWEST MISSOURI...

CITY           SKY/WX    TMP DP  RH WIND       PRES   REMARKS
SPRINGFIELD    SUNNY     79  71  76 S17G24    30.07S
JOPLIN         CLOUDY    80  71  74 S17G24    30.04S
BRANSON        MOSUNNY   81  72  74 S8        30.12S

$$
MOZ032>034-039>042-045>050-055>058-069>072-241500-
...CENTRAL MISSOURI...

CITY           SKY/WX    TMP DP  RH WIND       PRES   REMARKS
COLUMBIA       CLOUDY    79  73  82 S12       30.00F
JEFFERSON CITY SUNNY     78  72  81 S8        30.00F
ROLLA          MOSUNNY   78  72  81 S12       30.06F
SEDALIA        CLOUDY    77  73  87 S12       30.01F
WHITEMAN AFB   PTSUNNY   76  76 100 SW15      29.98F
OSAGE BEACH    SUNNY     81  72  74 SW8       30.06F

$$
MOZ051-052-059>065-241500-
...EAST CENTRAL MISSOURI...

CITY           SKY/WX    TMP DP  RH WIND       PRES   REMARKS
ST LOUIS INTL  CLOUDY    82  72  71 SW15      30.04S
SPIRIT OF STL  MOSUNNY   82  74  76 SW12      30.02S
ST CHARLES     MOSUNNY   81  74  79 SW12G21   30.01F

$$
MOZ072>076-082>087-097>100-106>115-241500-
...SOUTH CENTRAL AND SOUTHEAST MISSOURI...

CITY           SKY/WX    TMP DP  RH WIND       PRES   REMARKS
CAPE GIRARDEAU CLOUDY    79  73  82 S9        30.12S
FARMINGTON     CLOUDY    78  74  87 S13       30.11F
POPLAR BLUFF   MOSUNNY   80  75  84 SW9       30.12S
WEST PLAINS    SUNNY     79  73  82 SW9       30.15S

$$




USA.gov is the U.S. government's official web portal to all federal, state and local government web resources and services.